Weather History for Yellowstone, WY

Change the Weather History Date:

Thursday, November 8, 2012

  Actual Average Record
Temperature  
Mean Temperature 35 °F 26 °F  
Max Temperature 42 °F 37 °F 52 °F (1999)
Min Temperature 28 °F 15 °F -1 °F (2000)
Degree Days  
Heating Degree Days 30 39  
Month to date heating degree days 299  
Since 1 July heating degree days 2347  
Cooling Degree Days 0 0  
Month to date cooling degree days 0  
Year to date cooling degree days 0  
Moisture  
Dew Point 29 °F    
Average Humidity 83    
Maximum Humidity 96    
Minimum Humidity 65    
Precipitation  
Precipitation 0.04 in 0.06 in 0.71 in (2006)
Month to date precipitation 0.57  
Year to date precipitation 17.29  
Sea Level Pressure  
Sea Level Pressure 29.74 in    
Wind  
Wind Speed 1 mph (WNW)    
Max Wind Speed 6 mph    
Max Gust Speed -    
T = Trace of Precipitation, MM = Missing Value Source: NWS Daily Summary

Daily Weather History Graph

Daily Weather History Graph

Search for Another Location

Airport:

Trip Planner

Search our weather history database for the weather conditions in past years. The results will help you decide how hot, cold, wet, or windy it might be!

Date:

Astronomy

Nov. 08, 2012 Rise Set
Actual Time 7:09 AM MST 5:00 PM MST
Civil Twilight 6:38 AM MST 5:31 PM MST
Nautical Twilight 6:03 AM MST 6:06 PM MST
Astronomical Twilight 5:29 AM MST 6:40 PM MST
Moon 12:54 AM MST (11/8) 1:55 PM MST (11/8)
Length of Visible Light 10h 53m
Length of Day
9h 51m
Waning Crescent, 32% of the Moon is Illuminated
Nov 8
Waning Crescent
Nov 13
New
Nov 20
First Quarter
Nov 28
Full
Dec 6
Last Quarter

Hourly Weather History & Observations

Time (MST) Temp. Windchill Dew Point Humidity Pressure Visibility Wind Dir Wind Speed Gust Speed Precip Events Conditions
12:56 AM 28.0 °F - 24.1 °F 85% 29.90 in - Calm Calm - N/A   Unknown
1:56 AM 28.0 °F - 25.0 °F 88% 29.89 in - Calm Calm - N/A   Unknown
2:56 AM 28.9 °F - 26.1 °F 89% 29.87 in - Calm Calm - N/A   Unknown
3:56 AM 36.0 °F - 27.0 °F 70% 29.83 in - Calm Calm - N/A   Unknown
4:56 AM 37.0 °F 34.5 °F 28.9 °F 73% 29.83 in - West 3.5 mph - N/A   Unknown
5:56 AM 36.0 °F 33.3 °F 28.9 °F 76% 29.81 in - WNW 3.5 mph - N/A   Unknown
6:56 AM 34.0 °F - 28.9 °F 82% 29.80 in - Calm Calm - N/A   Unknown
7:56 AM 30.9 °F - 27.0 °F 85% 29.80 in - Calm Calm - N/A   Unknown
8:56 AM 35.1 °F - 28.9 °F 78% 29.80 in - Calm Calm - N/A   Unknown
9:56 AM 39.0 °F 34.8 °F 28.9 °F 67% 29.78 in - Variable 5.8 mph - N/A   Unknown
10:56 AM 41.0 °F - 30.0 °F 65% 29.75 in - Calm Calm - 0.01 in   Unknown
11:56 AM 37.0 °F 33.3 °F 33.1 °F 86% 29.75 in - Variable 4.6 mph - 0.01 in   Unknown
12:56 PM 42.1 °F 38.4 °F 32.0 °F 67% 29.70 in - Variable 5.8 mph - N/A   Unknown
1:56 PM 37.0 °F 33.3 °F 33.1 °F 86% 29.72 in - Variable 4.6 mph - 0.01 in   Unknown
2:56 PM 37.0 °F 34.5 °F 33.1 °F 86% 29.73 in - Variable 3.5 mph - 0.01 in   Unknown
3:56 PM 37.0 °F - 33.1 °F 86% 29.68 in - Calm Calm - N/A   Unknown
4:56 PM 37.0 °F - 33.1 °F 86% 29.68 in - Calm Calm - N/A   Unknown
5:56 PM 33.1 °F - 30.9 °F 92% 29.68 in - Calm Calm - N/A   Unknown
6:56 PM 30.9 °F 27.5 °F 28.9 °F 92% 29.70 in - WNW 3.5 mph - N/A   Unknown
7:56 PM 30.0 °F - 28.9 °F 96% 29.68 in - Calm Calm - N/A   Unknown
8:56 PM 28.9 °F - 27.0 °F 92% 29.63 in - Calm Calm - N/A   Unknown
9:56 PM 28.9 °F - 28.0 °F 96% 29.57 in - Calm Calm - N/A   Unknown
10:56 PM 34.0 °F 29.8 °F 30.0 °F 85% 29.55 in - Variable 4.6 mph - N/A   Unknown
11:56 PM 32.0 °F - 28.9 °F 88% 29.58 in - Calm Calm - N/A   Unknown